Starlink 3632

operational
NORAD ID: 51784 Int'l Des: 2022-017 Owner: SPXS Country: US Constellation: starlink
LEOCIRCULAR

About Starlink 3632

Description loading...

Live Position

Loading 3D Globe...

Upcoming Passes

Altitude History

Altitude vs Time

uPlot chart will show altitude changes over time

Two-Line Element Set

1 51784U 22017S 25304.42971514 .00004666 00000-0 31102-3 0 9996
2 51784 53.2157 209.3901 0001776 69.0225 291.0957 15.08847063202761
Epoch: Oct 31, 2025 • Age: 13 hours

Current Status

Altitude 550.3 km
Velocity 7.59 km/s
Sub-Earth Point -32.46°S, 155.63°E
Launch Date Feb 25, 2022
Age 3.6 years
Type internet

Technical Details

Classification Payload
Mass 297.00 kg
Dry Mass 275.00 kg
Total Mass 297.00 kg
Length 0.20 m
Diameter 2.80 m
Span 9.00 m
Shape Box + pan
Manufacturer SPXS
Bus Type Starlink
Phase Status In Orbit
Owner/State SPXS/US

Large Constellations

Loading constellations...